{"data":{"norad_id":63996,"intl_designator":"2025-101C","name":"STARLINK-34158","alt_names":[],"object_type":"PAYLOAD","status":"ACTIVE","operator":null,"country":"US","launch_date":"2025-05-14","launch_site_code":"AFETR","launch_vehicle":null,"mission":null,"orbit_class":"UNKNOWN","rcs_meters":null,"size_class":null,"mass_kg":null,"dimensions":null,"purposes":["comms"],"wikipedia_slug":null,"has_3d_model":false,"image_url":null,"decayed_at":null,"tle_current":{"epoch":"2026-09-20T21:52:26.806368Z","epoch_age_seconds":108102,"freshness":"FRESH","line1":"1 63996U 25101C   26263.91142137  .00011136  00000+0  41360-3 0  9997","line2":"2 63996  43.0013 335.3426 0001893 270.4020  89.6615 15.27579909 76910","mean_motion":15.27579909,"eccentricity":0.0001893,"inclination_deg":43.0013,"raan_deg":335.3426,"arg_perigee_deg":270.402,"mean_anomaly_deg":89.6615,"bstar":0.0004136,"rev_number":7691,"period_min":94.266754329249,"perigee_km":481.75054594684,"apogee_km":484.34819110597,"semimajor_km":6861.1863685264,"source":"CELESTRAK","updated_at":"2026-09-21T09:00:35.179987Z"}}}